Погода в Еделеве

Россия / Ульяновская область     53°24′17″N   47°44′45″E
темп.,
°C
ветер,
м/с
пор.,
м/с
влажн.,
%
обл.,
%
осадки,
мм/ч
давл.,
гПа
погр.,
м
15 апреля, чт
чт1501:00+10юв22870 0.0 102212
04:00+9вюв22850 0.0 102111
07:00+9вюв12840 0.0 102111
10:00+14ююв23614 0.0 1020312
13:00+18ююв33469 0.0 1019727
16:00+20ююв35382 0.0 10181257
19:00+17юв225291 0.0 101816
22:00+13вюв2257100 0.0 101810
16 апреля, пт
пт1601:00+12юв1160100 0.0 101810
04:00+11св1160100 0.0 101810
07:00+10св2268100 0.0 101923
10:00+14всв3557100 0.0 1019313
13:00+17всв4544100 0.0 1019915
16:00+18всв444158 0.0 10201563
19:00+14ссв586960 0.0 1020321
22:00+10ссв4118454 0.0 1021281
17 апреля, сб
сб1701:00+8св4109010 0.0 1022246
04:00+7св499562 0.0 1023208
07:00+7св4109518 0.0 1023289
10:00+11всв58724 0.0 1023514
13:00+14всв67581 0.0 1023831
16:00+14всв67491 0.0 10231062
19:00+12всв59502 0.0 1023419
22:00+9всв613520 0.0 1022384
18 апреля, вс
вс1801:00+7св613560 0.0 1022431
04:00+5св412640 0.0 1022365
07:00+4ссв512690 0.0 1023429
10:00+9св79510 0.0 1023934
13:00+11св78411 0.0 10231387
16:00+11ссв79425 0.0 10231561
19:00+9ссв610525 0.0 1024961
22:00+6св711705 0.0 1027798
19 апреля, пн
пн1901:00+4св59663 0.0 1029753
04:00+2св510523 0.0 1031518
07:00+1св5105617 0.0 1034640
10:00+3всв79395 0.0 10341272
13:00+5всв683468 0.0 10351448
16:00+7всв5631100 0.0 10351595
19:00+5всв473638 0.0 1035747
22:00+2всв39475 0.0 1036243